APG2125 RPLL-RCTP

Flight info

Callsign APG2125
Flight time N/A
Altitude 35000
Route RDVXALPAS/06 ALPAS M646 LAO/N0448F370 M646 POTIB Q14 TNN TNN1A
Aircraft A320/M-SDE3FGHIRWY/LB1

Departure

Time 2026-05-04 06:17
Airport Ninoy Aquino International Airport (RPLL)

Arrival

Time N/A
Airport Taiwan Taoyuan International Airport (RCTP)
Time Latitude Longitude Altitude Speed Heading
2026-05-04 06:00 14.51852 121.01320 69 ft 0 kts 45°
2026-05-04 06:01 14.51848 121.01316 60 ft 4 kts 45°
2026-05-04 06:03 14.51771 121.01265 64 ft 0 kts 135°
2026-05-04 06:07 14.51746 121.01291 69 ft 17 kts 134°
2026-05-04 06:07 14.51645 121.01397 69 ft 22 kts 136°
2026-05-04 06:07 14.51545 121.01500 62 ft 20 kts 135°
2026-05-04 06:07 14.51466 121.01581 63 ft 16 kts 135°
2026-05-04 06:08 14.51397 121.01651 66 ft 13 kts 135°
2026-05-04 06:08 14.51340 121.01709 68 ft 7 kts 135°
2026-05-04 06:08 14.51299 121.01752 64 ft 10 kts 135°
2026-05-04 06:08 14.51249 121.01804 63 ft 11 kts 135°
2026-05-04 06:09 14.51191 121.01864 67 ft 13 kts 135°
2026-05-04 06:09 14.51124 121.01933 69 ft 12 kts 135°
2026-05-04 06:11 14.50792 121.01542 66 ft 25 kts 239°
2026-05-04 06:11 14.50707 121.01391 69 ft 21 kts 240°
2026-05-04 06:13 14.50499 121.01012 65 ft 3 kts 239°
2026-05-04 06:14 14.50060 121.00228 68 ft 18 kts 240°
2026-05-04 06:14 14.50004 121.00129 63 ft 16 kts 240°
2026-05-04 06:15 14.49950 121.00031 60 ft 16 kts 240°
2026-05-04 06:15 14.49891 120.99969 69 ft 7 kts 192°
2026-05-04 06:15 14.49873 120.99970 63 ft 8 kts 170°
2026-05-04 06:15 14.49816 121.00004 63 ft 11 kts 133°
2026-05-04 06:16 14.49830 121.00091 61 ft 14 kts 58°
2026-05-04 06:16 14.49882 121.00188 68 ft 19 kts 60°
2026-05-04 06:16 14.50058 121.00506 63 ft 87 kts 60°
2026-05-04 06:16 14.50470 121.01247 67 ft 148 kts 60°
2026-05-04 06:17 14.51077 121.02302 237 ft 185 kts 62°
2026-05-04 06:17 14.51742 121.03527 702 ft 208 kts 62°
2026-05-04 06:17 14.52484 121.04866 1146 ft 223 kts 60°
2026-05-04 06:17 14.53294 121.06327 1492 ft 246 kts 60°
2026-05-04 06:18 14.54168 121.07901 2090 ft 257 kts 60°
2026-05-04 06:18 14.55063 121.09513 2936 ft 259 kts 61°
2026-05-04 06:18 14.56023 121.11091 3832 ft 260 kts 52°
2026-05-04 06:20 14.68567 121.13487 7052 ft 277 kts
2026-05-04 06:20 14.70491 121.13281 7051 ft 280 kts 351°
2026-05-04 06:21 14.77994 121.10673 9130 ft 291 kts 343°
2026-05-04 06:21 14.79919 121.09985 9786 ft 295 kts 343°
2026-05-04 06:22 14.81890 121.09279 10262 ft 306 kts 343°
2026-05-04 06:22 14.83975 121.08533 10394 ft 329 kts 342°
2026-05-04 06:25 15.13764 120.92868 16087 ft 402 kts 332°
2026-05-04 06:25 15.16222 120.91478 16575 ft 404 kts 332°
2026-05-04 06:26 15.17167 120.90944 16766 ft 405 kts 332°
2026-05-04 06:26 15.19358 120.89707 17195 ft 407 kts 332°
2026-05-04 06:26 15.21852 120.88301 17678 ft 409 kts 332°
2026-05-04 06:26 15.24358 120.86886 18122 ft 412 kts 332°
2026-05-04 06:27 15.34497 120.81143 19763 ft 421 kts 331°
2026-05-04 06:28 15.37105 120.79665 20136 ft 423 kts 331°
2026-05-04 06:28 15.39697 120.78194 20527 ft 425 kts 331°
2026-05-04 06:28 15.42267 120.76733 20899 ft 427 kts 331°
2026-05-04 06:28 15.44878 120.75250 21272 ft 429 kts 331°